Time,TemperatureF,DewpointF,PressureIn,WindDirection,WindDirectionDegrees,WindSpeedMPH,WindSpeedGustMPH,Humidity,HourlyPrecipIn,Conditions,Clouds,dailyrainin,SoftwareType,DateUTC
2013-07-04 11:37:00,72.7,36.8,30.11,WNW,295,0.0,0.0,27,0.00,,SCT,0.00,VWS V14.01,2013-07-04 18:37:00,
2013-07-04 11:38:00,72.7,36.8,30.11,WNW,295,0.0,0.0,27,0.00,,SCT,0.00,VWS V14.01,2013-07-04 18:38:00,
2013-07-04 11:40:00,72.9,36.0,30.11,NW,320,2.2,8.7,26,0.00,,SCT,0.00,VWS V14.01,2013-07-04 18:40:00,
2013-07-04 11:45:00,73.2,38.2,30.11,South,177,0.0,0.0,28,0.00,,SCT,0.00,VWS V14.01,2013-07-04 18:45:00,
2013-07-04 11:50:00,73.6,36.6,30.11,SSW,206,0.0,9.6,26,0.00,,SCT,0.00,VWS V14.01,2013-07-04 18:50:00,
2013-07-04 11:55:00,74.1,37.1,30.11,North,350,0.0,9.6,26,0.00,,SCT,0.00,VWS V14.01,2013-07-04 18:55:00,
2013-07-04 12:00:00,75.0,37.8,30.11,WNW,295,0.0,0.0,26,0.00,,SCT,0.00,VWS V14.01,2013-07-04 19:00:00,
2013-07-04 12:05:00,75.6,37.3,30.11,West,269,0.0,4.0,25,0.00,,SCT,0.00,VWS V14.01,2013-07-04 19:05:00,
2013-07-04 12:10:00,76.1,37.8,30.11,NW,306,0.0,4.0,25,0.00,,SCT,0.00,VWS V14.01,2013-07-04 19:10:00,
2013-07-04 12:15:00,76.5,38.1,30.11,SSE,154,0.0,0.0,25,0.00,,SCT,0.00,VWS V14.01,2013-07-04 19:15:00,
2013-07-04 12:20:00,76.8,38.4,30.11,North,353,3.6,5.4,25,0.00,,SCT,0.00,VWS V14.01,2013-07-04 19:20:00,
2013-07-04 12:25:00,76.8,37.3,30.11,NNE,32,0.0,8.1,24,0.00,,SCT,0.00,VWS V14.01,2013-07-04 19:25:00,
2013-07-04 12:30:00,77.0,37.5,30.11,NNW,330,2.2,2.2,24,0.00,,SCT,0.00,VWS V14.01,2013-07-04 19:30:00,
2013-07-04 12:35:00,77.5,36.8,30.11,NNW,331,5.4,8.3,23,0.00,,SCT,0.00,VWS V14.01,2013-07-04 19:35:00,
2013-07-04 12:41:00,77.5,36.8,30.11,WNW,303,0.0,8.3,23,0.00,,SCT,0.00,VWS V14.01,2013-07-04 19:41:00,
2013-07-04 12:45:00,78.1,37.3,30.11,ESE,115,0.0,8.3,23,0.00,,SCT,0.00,VWS V14.01,2013-07-04 19:45:00,
2013-07-04 12:46:00,78.3,36.3,30.11,NW,319,5.4,5.4,22,0.00,,SCT,0.00,VWS V14.01,2013-07-04 19:46:00,
2013-07-04 12:51:00,78.4,35.3,30.11,West,274,3.1,8.1,21,0.00,,SCT,0.00,VWS V14.01,2013-07-04 19:51:00,
2013-07-04 12:56:00,78.8,35.6,30.08,WNW,287,2.2,8.1,21,0.00,,SCT,0.00,VWS V14.01,2013-07-04 19:56:00,
2013-07-04 13:00:00,79.2,35.9,30.08,NW,313,4.0,8.1,21,0.00,,SCT,0.00,VWS V14.01,2013-07-04 20:00:00,
2013-07-04 13:01:00,79.2,35.9,30.08,WNW,300,0.0,4.0,21,0.00,,SCT,0.00,VWS V14.01,2013-07-04 20:01:00,
2013-07-04 13:06:00,79.0,35.8,30.08,NNW,342,4.0,8.1,21,0.00,,SCT,0.00,VWS V14.01,2013-07-04 20:06:00,
2013-07-04 13:11:00,79.3,36.0,30.08,NW,324,8.1,8.1,21,0.00,,SCT,0.00,VWS V14.01,2013-07-04 20:11:00,
2013-07-04 13:15:00,80.1,36.7,30.08,West,280,0.0,8.1,21,0.00,,SCT,0.00,VWS V14.01,2013-07-04 20:15:00,
2013-07-04 13:16:00,80.2,36.8,30.08,NW,312,0.0,0.0,21,0.00,,SCT,0.00,VWS V14.01,2013-07-04 20:16:00,
2013-07-04 13:21:00,80.6,35.9,30.08,WNW,290,0.0,7.6,20,0.00,,SCT,0.00,VWS V14.01,2013-07-04 20:21:00,
2013-07-04 13:26:00,81.9,36.9,30.08,NW,318,0.0,7.6,20,0.00,,SCT,0.00,VWS V14.01,2013-07-04 20:26:00,
2013-07-04 13:30:00,81.5,36.6,30.08,NNW,335,4.0,8.3,20,0.00,,SCT,0.00,VWS V14.01,2013-07-04 20:30:00,
2013-07-04 13:31:00,81.7,36.8,30.08,NW,322,0.0,11.0,20,0.00,,SCT,0.00,VWS V14.01,2013-07-04 20:31:00,
2013-07-04 13:36:00,82.4,36.0,30.08,West,264,6.3,11.0,19,0.00,,SCT,0.00,VWS V14.01,2013-07-04 20:36:00,
2013-07-04 13:41:00,82.4,36.0,30.08,NNW,329,5.8,11.0,19,0.00,,SCT,0.00,VWS V14.01,2013-07-04 20:41:00,
2013-07-04 13:45:00,82.2,37.2,30.08,West,276,0.0,11.0,20,0.00,,SCT,0.00,VWS V14.01,2013-07-04 20:45:00,
2013-07-04 13:46:00,82.2,37.2,30.08,WSW,253,0.0,2.7,20,0.00,,SCT,0.00,VWS V14.01,2013-07-04 20:46:00,
2013-07-04 13:51:00,82.4,37.3,30.08,North,2,3.1,11.0,20,0.00,,SCT,0.00,VWS V14.01,2013-07-04 20:51:00,
2013-07-04 13:56:00,82.9,37.8,30.08,WSW,248,5.4,11.0,20,0.00,,SCT,0.00,VWS V14.01,2013-07-04 20:56:00,
2013-07-04 14:00:00,83.1,36.6,30.08,West,269,0.0,11.0,19,0.00,,SCT,0.00,VWS V14.01,2013-07-04 21:00:00,
2013-07-04 14:01:00,83.1,37.9,30.08,SSW,208,0.0,0.0,20,0.00,,SCT,0.00,VWS V14.01,2013-07-04 21:01:00,
2013-07-04 14:06:00,83.3,36.8,30.08,NNW,330,6.3,6.3,19,0.00,,SCT,0.00,VWS V14.01,2013-07-04 21:06:00,
2013-07-04 14:11:00,83.5,38.2,30.08,West,264,0.0,6.3,20,0.00,,SCT,0.00,VWS V14.01,2013-07-04 21:11:00,
2013-07-04 14:15:00,83.8,37.2,30.08,NNW,327,3.6,8.7,19,0.00,,SCT,0.00,VWS V14.01,2013-07-04 21:15:00,
2013-07-04 14:17:00,83.8,38.5,30.08,ENE,75,0.0,3.6,20,0.00,,SCT,0.00,VWS V14.01,2013-07-04 21:17:00,
2013-07-04 14:22:00,84.4,37.7,30.08,NW,306,2.7,8.3,19,0.00,,SCT,0.00,VWS V14.01,2013-07-04 21:22:00,
2013-07-04 14:27:00,84.7,38.0,30.05,SW,227,0.0,8.3,19,0.00,,SCT,0.00,VWS V14.01,2013-07-04 21:27:00,
2013-07-04 14:30:00,85.3,38.4,30.05,NNW,339,0.0,8.3,19,0.00,,SCT,0.00,VWS V14.01,2013-07-04 21:30:00,
2013-07-04 14:32:00,85.3,38.4,30.05,NNW,332,7.6,7.6,19,0.00,,SCT,0.00,VWS V14.01,2013-07-04 21:32:00,
2013-07-04 14:37:00,85.1,38.2,30.05,NNW,327,2.7,8.1,19,0.00,,SCT,0.00,VWS V14.01,2013-07-04 21:37:00,
2013-07-04 14:42:00,85.1,38.2,30.08,NW,314,4.0,8.1,19,0.00,,SCT,0.00,VWS V14.01,2013-07-04 21:42:00,
2013-07-04 14:45:00,84.6,37.8,30.08,WNW,297,4.9,8.3,19,0.00,,SCT,0.00,VWS V14.01,2013-07-04 21:45:00,
2013-07-04 14:47:00,84.4,37.7,30.08,NW,320,7.6,8.7,19,0.00,,SCT,0.00,VWS V14.01,2013-07-04 21:47:00,
2013-07-04 14:52:00,84.4,37.7,30.08,WNW,289,8.1,8.7,19,0.00,,SCT,0.00,VWS V14.01,2013-07-04 21:52:00,
2013-07-04 14:57:00,84.9,38.1,30.08,South,191,0.0,8.7,19,0.00,,SCT,0.00,VWS V14.01,2013-07-04 21:57:00,
2013-07-04 15:00:00,85.1,38.2,30.08,WSW,250,4.0,8.7,19,0.00,,SCT,0.00,VWS V14.01,2013-07-04 22:00:00,
2013-07-04 15:02:00,85.1,38.2,30.08,West,277,0.0,5.8,19,0.00,,SCT,0.00,VWS V14.01,2013-07-04 22:02:00,
2013-07-04 15:07:00,85.3,38.4,30.08,NNW,334,9.6,9.6,19,0.00,,SCT,0.00,VWS V14.01,2013-07-04 22:07:00,
2013-07-04 15:13:00,85.5,38.5,30.08,WNW,296,3.1,9.6,19,0.00,,SCT,0.00,VWS V14.01,2013-07-04 22:13:00,
2013-07-04 15:15:00,85.6,38.7,30.08,WSW,254,0.0,9.6,19,0.00,,SCT,0.00,VWS V14.01,2013-07-04 22:15:00,
2013-07-04 15:18:00,85.6,38.7,30.08,West,265,4.5,8.3,19,0.00,,SCT,0.00,VWS V14.01,2013-07-04 22:18:00,
2013-07-04 15:23:00,85.3,38.4,30.05,North,4,2.2,8.3,19,0.00,,SCT,0.00,VWS V14.01,2013-07-04 22:23:00,
2013-07-04 15:28:00,85.3,38.4,30.05,NNW,330,0.0,8.3,19,0.00,,SCT,0.00,VWS V14.01,2013-07-04 22:28:00,
2013-07-04 15:30:00,85.3,38.4,30.05,WSW,241,0.0,8.3,19,0.00,,SCT,0.00,VWS V14.01,2013-07-04 22:30:00,
2013-07-04 15:33:00,85.6,38.7,30.05,NW,317,8.3,8.3,19,0.00,,SCT,0.00,VWS V14.01,2013-07-04 22:33:00,
2013-07-04 15:38:00,86.2,39.1,30.05,West,275,5.4,8.3,19,0.00,,SCT,0.00,VWS V14.01,2013-07-04 22:38:00,
2013-07-04 15:43:00,86.4,39.3,30.05,NNW,335,5.8,8.3,19,0.00,,SCT,0.00,VWS V14.01,2013-07-04 22:43:00,
2013-07-04 15:45:00,86.2,39.1,30.05,NNW,338,5.8,8.3,19,0.00,,SCT,0.00,VWS V14.01,2013-07-04 22:45:00,
2013-07-04 15:48:00,85.8,38.8,30.05,WNW,298,2.2,8.1,19,0.00,,SCT,0.00,VWS V14.01,2013-07-04 22:48:00,
2013-07-04 15:53:00,86.2,39.1,30.05,WNW,285,4.0,8.1,19,0.00,,SCT,0.00,VWS V14.01,2013-07-04 22:53:00,
2013-07-04 15:58:00,86.0,39.0,30.05,NNW,337,0.0,9.6,19,0.00,,SCT,0.00,VWS V14.01,2013-07-04 22:58:00,
2013-07-04 16:00:00,86.2,39.1,30.05,WNW,296,4.9,9.6,19,0.00,,SCT,0.00,VWS V14.01,2013-07-04 23:00:00,
2013-07-04 16:03:00,86.2,39.1,30.05,WNW,286,0.0,8.1,19,0.00,,SCT,0.00,VWS V14.01,2013-07-04 23:03:00,
2013-07-04 16:08:00,86.5,39.4,30.05,NW,310,0.0,8.1,19,0.00,,SCT,0.00,VWS V14.01,2013-07-04 23:08:00,
2013-07-04 16:14:00,86.5,39.4,30.05,NNW,335,8.7,8.7,19,0.00,,SCT,0.00,VWS V14.01,2013-07-04 23:14:00,
2013-07-04 16:15:00,86.4,39.3,30.05,WNW,293,3.6,8.7,19,0.00,,SCT,0.00,VWS V14.01,2013-07-04 23:15:00,
2013-07-04 16:19:00,86.4,39.3,30.05,WNW,300,7.6,8.1,19,0.00,,SCT,0.00,VWS V14.01,2013-07-04 23:19:00,
2013-07-04 16:24:00,86.4,39.3,30.05,West,271,2.7,8.3,19,0.00,,SCT,0.00,VWS V14.01,2013-07-04 23:24:00,
2013-07-04 16:29:00,86.2,39.1,30.05,North,353,0.0,8.3,19,0.00,,SCT,0.00,VWS V14.01,2013-07-04 23:29:00,
2013-07-04 16:30:00,86.2,39.1,30.05,NW,310,4.0,8.3,19,0.00,,SCT,0.00,VWS V14.01,2013-07-04 23:30:00,
2013-07-04 16:34:00,86.4,39.3,30.05,NNW,328,3.1,6.7,19,0.00,,SCT,0.00,VWS V14.01,2013-07-04 23:34:00,
2013-07-04 16:39:00,86.7,39.6,30.05,SSW,213,0.0,9.6,19,0.00,,SCT,0.00,VWS V14.01,2013-07-04 23:39:00,
2013-07-04 16:44:00,86.7,39.6,30.05,WNW,289,6.3,9.6,19,0.00,,SCT,0.00,VWS V14.01,2013-07-04 23:44:00,
2013-07-04 16:45:00,86.7,39.6,30.05,WNW,292,6.3,9.6,19,0.00,,SCT,0.00,VWS V14.01,2013-07-04 23:45:00,
2013-07-04 16:49:00,86.4,39.3,30.05,NW,323,3.6,8.7,19,0.00,,SCT,0.00,VWS V14.01,2013-07-04 23:49:00,
2013-07-04 16:54:00,86.4,39.3,30.05,East,92,0.0,8.7,19,0.00,,SCT,0.00,VWS V14.01,2013-07-04 23:54:00,
2013-07-04 17:00:00,86.4,39.3,30.05,WNW,291,3.6,8.7,19,0.00,,SCT,0.00,VWS V14.01,2013-07-05 00:00:00,
2013-07-04 17:05:00,86.2,39.1,30.05,West,266,3.1,5.8,19,0.00,,SCT,0.00,VWS V14.01,2013-07-05 00:05:00,
2013-07-04 17:10:00,86.0,39.0,30.05,South,178,0.0,5.8,19,0.00,,SCT,0.00,VWS V14.01,2013-07-05 00:10:00,
2013-07-04 17:15:00,86.4,39.3,30.05,NW,314,4.0,5.4,19,0.00,,SCT,0.00,VWS V14.01,2013-07-05 00:15:00,
2013-07-04 17:20:00,86.2,39.1,30.05,NW,312,8.3,8.3,19,0.00,,SCT,0.00,VWS V14.01,2013-07-05 00:20:00,
2013-07-04 17:25:00,86.0,39.0,30.05,North,353,0.0,8.3,19,0.00,,SCT,0.00,VWS V14.01,2013-07-05 00:25:00,
2013-07-04 17:30:00,86.0,39.0,30.05,North,357,0.0,2.7,19,0.00,,SCT,0.00,VWS V14.01,2013-07-05 00:30:00,
2013-07-04 17:35:00,86.4,39.3,30.05,SW,224,3.6,5.8,19,0.00,,SCT,0.00,VWS V14.01,2013-07-05 00:35:00,
2013-07-04 17:40:00,85.8,40.2,30.05,SSE,150,0.0,5.8,20,0.00,,SCT,0.00,VWS V14.01,2013-07-05 00:40:00,
2013-07-04 17:45:00,85.1,39.6,30.05,WNW,283,5.4,5.4,20,0.00,,SCT,0.00,VWS V14.01,2013-07-05 00:45:00,
2013-07-04 17:50:00,84.7,39.3,30.05,NNW,331,2.2,10.1,20,0.00,,SCT,0.00,VWS V14.01,2013-07-05 00:50:00,
2013-07-04 17:55:00,84.6,39.1,30.05,ENE,59,0.0,10.1,20,0.00,,SCT,0.00,VWS V14.01,2013-07-05 00:55:00,
2013-07-04 18:00:00,84.6,39.1,30.05,WNW,287,0.0,10.1,20,0.00,,SCT,0.00,VWS V14.01,2013-07-05 01:00:00,
2013-07-04 18:01:00,84.6,39.1,30.05,NW,322,5.8,6.3,20,0.00,,SCT,0.00,VWS V14.01,2013-07-05 01:01:00,
2013-07-04 18:06:00,84.2,38.8,30.05,NNW,339,0.0,10.5,20,0.00,,SCT,0.00,VWS V14.01,2013-07-05 01:06:00,
2013-07-04 18:11:00,83.8,39.8,30.05,NNW,334,7.6,10.5,21,0.00,,SCT,0.00,VWS V14.01,2013-07-05 01:11:00,
2013-07-04 18:15:00,83.3,39.3,30.05,NW,306,0.0,10.5,21,0.00,,SCT,0.00,VWS V14.01,2013-07-05 01:15:00,
2013-07-04 18:16:00,83.3,39.3,30.05,WNW,292,8.1,8.1,21,0.00,,SCT,0.00,VWS V14.01,2013-07-05 01:16:00,
2013-07-04 18:21:00,82.8,38.9,30.05,North,350,5.4,11.0,21,0.00,,SCT,0.00,VWS V14.01,2013-07-05 01:21:00,
2013-07-04 18:26:00,82.6,38.7,30.05,NW,312,8.7,11.0,21,0.00,,SCT,0.00,VWS V14.01,2013-07-05 01:26:00,
2013-07-04 18:30:00,82.4,38.6,30.05,NW,324,5.4,11.0,21,0.00,,SCT,0.00,VWS V14.01,2013-07-05 01:30:00,
2013-07-04 18:31:00,82.2,38.4,30.05,ESE,107,4.9,6.3,21,0.00,,SCT,0.00,VWS V14.01,2013-07-05 01:31:00,
2013-07-04 18:36:00,81.7,39.2,30.05,WSW,241,5.8,7.6,22,0.00,,SCT,0.00,VWS V14.01,2013-07-05 01:36:00,
2013-07-04 18:41:00,81.0,38.6,30.05,NNW,344,3.6,7.6,22,0.00,,SCT,0.00,VWS V14.01,2013-07-05 01:41:00,
2013-07-04 18:45:00,80.6,38.3,30.05,NNW,330,3.6,12.3,22,0.00,,SCT,0.00,VWS V14.01,2013-07-05 01:45:00,
2013-07-04 18:46:00,80.2,39.1,30.05,NW,326,0.0,5.4,23,0.00,,SCT,0.00,VWS V14.01,2013-07-05 01:46:00,
2013-07-04 18:51:00,80.1,39.0,30.05,South,189,0.0,13.2,23,0.00,,SCT,0.00,VWS V14.01,2013-07-05 01:51:00,
2013-07-04 18:56:00,79.9,38.8,30.05,NNW,329,0.0,13.2,23,0.00,,SCT,0.00,VWS V14.01,2013-07-05 01:56:00,
2013-07-04 19:00:00,79.5,38.5,30.05,NE,40,0.0,13.2,23,0.00,,SCT,0.00,VWS V14.01,2013-07-05 02:00:00,
2013-07-04 19:01:00,79.5,38.5,30.05,NNW,327,2.2,5.8,23,0.00,,SCT,0.00,VWS V14.01,2013-07-05 02:01:00,
2013-07-04 19:07:00,79.0,38.1,30.05,NNW,340,8.3,11.0,23,0.00,,SCT,0.00,VWS V14.01,2013-07-05 02:07:00,
2013-07-04 19:12:00,78.4,38.7,30.05,NNE,12,6.3,11.0,24,0.00,,SCT,0.00,VWS V14.01,2013-07-05 02:12:00,
2013-07-04 19:15:00,78.3,38.5,30.05,NW,319,0.0,11.0,24,0.00,,SCT,0.00,VWS V14.01,2013-07-05 02:15:00,
2013-07-04 19:17:00,78.3,38.5,30.05,NW,307,0.0,7.6,24,0.00,,SCT,0.00,VWS V14.01,2013-07-05 02:17:00,
2013-07-04 19:22:00,78.1,38.4,30.05,North,357,5.8,8.7,24,0.00,,SCT,0.00,VWS V14.01,2013-07-05 02:22:00,
2013-07-04 19:27:00,77.9,38.2,30.05,NW,322,3.1,8.7,24,0.00,,SCT,0.00,VWS V14.01,2013-07-05 02:27:00,
2013-07-04 19:30:00,77.7,38.1,30.05,NNW,345,6.3,10.1,24,0.00,,SCT,0.00,VWS V14.01,2013-07-05 02:30:00,
2013-07-04 19:32:00,77.5,37.9,30.05,WNW,290,0.0,6.3,24,0.00,,SCT,0.00,VWS V14.01,2013-07-05 02:32:00,
2013-07-04 19:37:00,77.0,37.5,30.05,WSW,243,0.0,7.6,24,0.00,,SCT,0.00,VWS V14.01,2013-07-05 02:37:00,
2013-07-04 19:42:00,77.0,38.5,30.05,NW,319,3.6,7.6,25,0.00,,SCT,0.00,VWS V14.01,2013-07-05 02:42:00,
2013-07-04 19:45:00,76.8,39.4,30.05,North,9,0.0,7.6,26,0.00,,SCT,0.00,VWS V14.01,2013-07-05 02:45:00,
2013-07-04 19:47:00,76.6,39.2,30.05,NW,315,0.0,6.3,26,0.00,,SCT,0.00,VWS V14.01,2013-07-05 02:47:00,
2013-07-04 19:52:00,76.3,38.9,30.05,SW,236,0.0,8.3,26,0.00,,SCT,0.00,VWS V14.01,2013-07-05 02:52:00,
2013-07-04 19:57:00,75.9,38.6,30.05,NNW,342,3.1,8.3,26,0.00,,SCT,0.00,VWS V14.01,2013-07-05 02:57:00,
2013-07-04 20:00:00,75.6,38.3,30.05,WSW,247,2.2,8.3,26,0.00,,SCT,0.00,VWS V14.01,2013-07-05 03:00:00,
2013-07-04 20:02:00,75.4,38.2,30.05,NW,324,0.0,5.4,26,0.00,,SCT,0.00,VWS V14.01,2013-07-05 03:02:00,
2013-07-04 20:07:00,75.0,38.8,30.05,NW,318,0.0,5.8,27,0.00,,SCT,0.00,VWS V14.01,2013-07-05 03:07:00,
2013-07-04 20:13:00,74.5,38.3,30.05,SSW,210,0.0,7.2,27,0.00,,SCT,0.00,VWS V14.01,2013-07-05 03:13:00,
2013-07-04 20:15:00,74.3,38.2,30.05,WSW,251,0.0,7.2,27,0.00,,SCT,0.00,VWS V14.01,2013-07-05 03:15:00,
2013-07-04 20:18:00,73.9,38.8,30.05,North,353,3.1,8.1,28,0.00,,SCT,0.00,VWS V14.01,2013-07-05 03:18:00,
2013-07-04 20:23:00,73.2,39.1,30.05,SSW,195,0.0,8.1,29,0.00,,SCT,0.00,VWS V14.01,2013-07-05 03:23:00,
2013-07-04 20:28:00,72.7,39.5,30.05,North,353,0.0,8.1,30,0.00,,SCT,0.00,VWS V14.01,2013-07-05 03:28:00,
2013-07-04 20:30:00,72.5,39.3,30.05,NW,326,0.0,8.1,30,0.00,,SCT,0.00,VWS V14.01,2013-07-05 03:30:00,
2013-07-04 20:33:00,72.1,39.9,30.05,NNW,348,2.2,3.6,31,0.00,,SCT,0.00,VWS V14.01,2013-07-05 03:33:00,
2013-07-04 20:38:00,71.6,39.4,30.05,West,279,0.0,6.3,31,0.00,,SCT,0.00,VWS V14.01,2013-07-05 03:38:00,
2013-07-04 20:43:00,70.9,39.6,30.05,NNW,331,3.6,6.7,32,0.00,,SCT,0.00,VWS V14.01,2013-07-05 03:43:00,
2013-07-04 20:45:00,70.5,39.3,30.05,NW,312,0.0,8.1,32,0.00,,SCT,0.00,VWS V14.01,2013-07-05 03:45:00,
2013-07-04 20:48:00,70.2,39.0,30.05,West,269,0.0,5.4,32,0.00,,SCT,0.00,VWS V14.01,2013-07-05 03:48:00,
2013-07-04 20:53:00,69.6,39.3,30.05,WSW,251,0.0,6.3,33,0.00,,SCT,0.00,VWS V14.01,2013-07-05 03:53:00,
2013-07-04 20:54:00,69.6,39.3,30.05,NNW,331,0.0,6.3,33,0.00,,SCT,0.00,VWS V14.01,2013-07-05 03:54:00,
2013-07-04 20:59:00,69.1,38.8,30.05,WNW,291,2.2,11.0,33,0.00,,SCT,0.00,VWS V14.01,2013-07-05 03:59:00,
2013-07-04 21:00:00,69.1,38.8,30.05,NNW,337,0.0,11.0,33,0.00,,SCT,0.00,VWS V14.01,2013-07-05 04:00:00,
2013-07-04 21:01:00,68.9,38.6,30.05,NNW,333,3.6,8.3,33,0.00,,SCT,0.00,VWS V14.01,2013-07-05 04:01:00,
2013-07-04 21:03:00,68.7,39.2,30.05,NW,326,6.3,8.3,34,0.00,,SCT,0.00,VWS V14.01,2013-07-05 04:03:00,
2013-07-04 21:08:00,68.4,38.9,30.05,NNW,335,0.0,8.3,34,0.00,,SCT,0.00,VWS V14.01,2013-07-05 04:08:00,
2013-07-04 21:13:00,68.2,39.5,30.05,ESE,119,0.0,8.3,35,0.00,,SCT,0.00,VWS V14.01,2013-07-05 04:13:00,
2013-07-04 21:15:00,68.0,39.3,30.05,NNW,328,0.0,8.3,35,0.00,,SCT,0.00,VWS V14.01,2013-07-05 04:15:00,
2013-07-04 21:18:00,67.6,39.8,30.05,WNW,285,0.0,6.3,36,0.00,,SCT,0.00,VWS V14.01,2013-07-05 04:18:00,
2013-07-04 21:23:00,67.1,40.0,30.05,SSW,208,0.0,6.3,37,0.00,,SCT,0.00,VWS V14.01,2013-07-05 04:23:00,
2013-07-04 21:29:00,66.7,40.3,30.05,NNW,336,0.0,7.6,38,0.00,,SCT,0.00,VWS V14.01,2013-07-05 04:29:00,
2013-07-04 21:30:00,66.7,40.3,30.05,NW,324,0.0,7.6,38,0.00,,SCT,0.00,VWS V14.01,2013-07-05 04:30:00,
2013-07-04 21:34:00,66.6,40.9,30.05,NNW,339,0.0,4.9,39,0.00,,SCT,0.00,VWS V14.01,2013-07-05 04:34:00,
2013-07-04 21:39:00,66.2,40.5,30.05,West,270,0.0,7.6,39,0.00,,SCT,0.00,VWS V14.01,2013-07-05 04:39:00,
2013-07-04 21:44:00,66.0,41.7,30.05,NW,321,0.0,7.6,41,0.00,,SCT,0.00,VWS V14.01,2013-07-05 04:44:00,
2013-07-04 21:45:00,66.0,41.7,30.05,NNW,344,0.0,7.6,41,0.00,,SCT,0.00,VWS V14.01,2013-07-05 04:45:00,
2013-07-04 21:49:00,65.7,41.3,30.05,NNW,343,2.7,5.4,41,0.00,,SCT,0.00,VWS V14.01,2013-07-05 04:49:00,
2013-07-04 21:54:00,65.5,41.8,30.05,NW,323,0.0,5.4,42,0.00,,SCT,0.00,VWS V14.01,2013-07-05 04:54:00,
2013-07-04 21:59:00,65.3,42.2,30.05,NW,312,0.0,5.4,43,0.00,,SCT,0.00,VWS V14.01,2013-07-05 04:59:00,
2013-07-04 22:00:00,65.3,42.2,30.05,NW,312,0.0,5.4,43,0.00,,SCT,0.00,VWS V14.01,2013-07-05 05:00:00,
2013-07-04 22:04:00,65.1,42.1,30.05,NW,312,0.0,0.0,43,0.00,,SCT,0.00,VWS V14.01,2013-07-05 05:04:00,
2013-07-04 22:09:00,64.8,42.4,30.05,SE,138,0.0,0.0,44,0.00,,SCT,0.00,VWS V14.01,2013-07-05 05:09:00,
2013-07-04 22:14:00,64.6,42.2,30.05,SE,138,0.0,0.0,44,0.00,,SCT,0.00,VWS V14.01,2013-07-05 05:14:00,
2013-07-04 22:15:00,64.6,42.2,30.05,SE,138,0.0,0.0,44,0.00,,SCT,0.00,VWS V14.01,2013-07-05 05:15:00,
2013-07-04 22:19:00,64.2,42.5,30.05,SE,138,0.0,0.0,45,0.00,,SCT,0.00,VWS V14.01,2013-07-05 05:19:00,
2013-07-04 22:25:00,64.0,42.3,30.05,SE,138,0.0,0.0,45,0.00,,SCT,0.00,VWS V14.01,2013-07-05 05:25:00,
2013-07-04 22:30:00,63.9,42.7,30.05,North,353,0.0,0.0,46,0.00,,SCT,0.00,VWS V14.01,2013-07-05 05:30:00,
2013-07-04 22:35:00,63.5,42.4,30.05,NW,325,0.0,0.0,46,0.00,,SCT,0.00,VWS V14.01,2013-07-05 05:35:00,
2013-07-04 22:40:00,63.3,42.2,30.05,WNW,296,0.0,0.0,46,0.00,,SCT,0.00,VWS V14.01,2013-07-05 05:40:00,
2013-07-04 22:45:00,63.0,41.9,30.05,NW,317,0.0,0.0,46,0.00,,SCT,0.00,VWS V14.01,2013-07-05 05:45:00,
2013-07-04 22:50:00,62.8,41.7,30.05,NNW,331,0.0,0.0,46,0.00,,SCT,0.00,VWS V14.01,2013-07-05 05:50:00,
2013-07-04 22:55:00,62.8,41.7,30.05,NNW,331,0.0,0.0,46,0.00,,SCT,0.00,VWS V14.01,2013-07-05 05:55:00,
2013-07-04 23:00:00,62.6,42.1,30.05,NNW,331,0.0,0.0,47,0.00,,SCT,0.00,VWS V14.01,2013-07-05 06:00:00,
2013-07-04 23:05:00,62.6,41.5,30.05,NNW,331,0.0,0.0,46,0.00,,SCT,0.00,VWS V14.01,2013-07-05 06:05:00,
2013-07-04 23:10:00,62.2,41.8,30.05,NNW,331,0.0,0.0,47,0.00,,SCT,0.00,VWS V14.01,2013-07-05 06:10:00,
2013-07-04 23:15:00,61.9,42.0,30.05,NNW,331,0.0,0.0,48,0.00,,SCT,0.00,VWS V14.01,2013-07-05 06:15:00,
2013-07-04 23:20:00,61.9,42.0,30.05,NNW,331,0.0,0.0,48,0.00,,SCT,0.00,VWS V14.01,2013-07-05 06:20:00,
2013-07-04 23:25:00,61.7,41.8,30.05,NNW,331,0.0,0.0,48,0.00,,SCT,0.00,VWS V14.01,2013-07-05 06:25:00,
2013-07-04 23:30:00,61.5,41.7,30.05,NNW,331,0.0,0.0,48,0.00,,SCT,0.00,VWS V14.01,2013-07-05 06:30:00,
2013-07-04 23:35:00,61.3,41.5,30.05,NNW,331,0.0,0.0,48,0.00,,SCT,0.00,VWS V14.01,2013-07-05 06:35:00,
2013-07-04 23:41:00,61.2,41.9,30.05,NNW,331,0.0,0.0,49,0.00,,SCT,0.00,VWS V14.01,2013-07-05 06:41:00,
2013-07-04 23:45:00,61.0,42.2,30.05,NNW,331,0.0,0.0,50,0.00,,SCT,0.00,VWS V14.01,2013-07-05 06:45:00,
2013-07-04 23:46:00,61.0,42.2,30.05,NNW,331,0.0,0.0,50,0.00,,SCT,0.00,VWS V14.01,2013-07-05 06:46:00,
2013-07-04 23:51:00,60.6,41.9,30.05,NNW,331,0.0,0.0,50,0.00,,SCT,0.00,VWS V14.01,2013-07-05 06:51:00,
2013-07-04 23:56:00,60.4,42.2,30.05,NNW,331,0.0,0.0,51,0.00,,SCT,0.00,VWS V14.01,2013-07-05 06:56:00,